FENGYUN 1C DEB

Satellite information

Favourite Embed

Satellite Type and Status

DEBRISIN ORBIT

Key statistics

Satellite FENGYUN 1C DEB at a glance.

Uptime

9714

Days in orbit

Revolutions

≈ 14.3

Per day

Orbit

SSO

Sun Synchronous Orbit

Inclination

98.4

Latest

Satellite identification and parameters

Extended collection of information and parameters for FENGYUN 1C DEB.

Object identification

Identified? True

Debris? True

Object name: FENGYUN 1C DEB

International designator: 1999-025NN

Object number (NORAD): 30037

Object ID (CCSDS): 30037

Country: PEOPLES REPUBLIC OF CHINA (PRC)

Current information (Y/N): Y

RCS size: SMALL

Orbital parameters

Period: 100.41 minutes

Inclination: 98.3834 deg

SMA: 7156.14 km

Apoapsis: 902.852 km

Periapsis: 653.157 km

RAAN: 321.9403 deg

Eccentricy: 0.01744619

Argument of periapsis: 56.665 deg

Mean anomaly: 10.3587 deg

Mean motion: 14.3411684 rev/day

Mean motion (dot): 0.00001044 rev/day2

B* drag term: 0.00032840647 1/REarth

Two-line elements (TLE)

Creation date: Dec. 12, 2025, 10:14 a.m.

Reference frame: TEME

Reference center: EARTH

Epoch: Dec. 12, 2025, 4:58 a.m. UTC

TLE line 0: 0 FENGYUN 1C DEB

TLE line 1: 1 30037U 99025NN 25346.20738628 .00001044 00000-0 32841-3 0 9994

TLE line 2: 2 30037 98.3834 321.9403 0174462 56.6650 10.3587 14.34116840987802

Live tracking on map

Real-time ground track for satellite FENGYUN 1C DEB.

In-orbit conjunctions

A list of the most updated potential collisions computed for object FENGYUN 1C DEB.

Target Orbit TCA Probability of collision Miss distance Type
METEOR 1-22 LEO 2025-12-12 07:35:15 0.0002546975 874.0 (m) PAYLOAD
COSMOS 468 LEO 2024-09-01 08:18:51 0.0005933854 85.0 (m) PAYLOAD
COSMOS 1603 LEO 2024-08-13 03:33:54 0.0002878708 663.0 (m) PAYLOAD

Associated space launch

Chinese polar orbiting meteorological satellite

FENGYUN 1C DEB was lifted into orbit during the mission ‘Long March 4B | Feng Yun 1C’, on board a Long March 4B space rocket.

The launch took place on May 10, 1999, 1:33 a.m. from Launch Complex 7.

For more information about the launch, click the button.

Launch to space Long March 4B | Feng Yun 1C
Long March 4B | Feng Yun 1C

Agency: N/A

Status: Launch Successful

Launch date: May 10, 1999, 1:33 a.m. UTC

Rocket: Long March 4B

Launch pad: Launch Complex 7

Location: Taiyuan Satellite Launch Center, People's Republic of China

...

Latest news about this satellite

There are no fresh news available about this satellite. Check back as we update our databases every day.


Newsletter sign-up

Weekly statistics, charts and insights to help you stay on top of the space industry.